{"data":{"norad_id":43585,"intl_designator":"2018-063A","name":"GAOFEN-11 01","alt_names":[],"object_type":"PAYLOAD","status":"ACTIVE","operator":null,"country":"PRC","launch_date":"2018-07-31","launch_site_code":"TAISC","launch_vehicle":null,"mission":null,"orbit_class":"UNKNOWN","rcs_meters":null,"size_class":null,"mass_kg":null,"dimensions":null,"purposes":["earth_obs"],"wikipedia_slug":null,"has_3d_model":false,"image_url":null,"decayed_at":null,"tle_current":{"epoch":"2026-09-20T04:30:24.786432Z","epoch_age_seconds":45162,"freshness":"FRESH","line1":"1 43585U 18063A   26263.18778688  .00011437  00000+0  15483-3 0  9994","line2":"2 43585  97.1190 329.9156 0003147   7.3552 352.7750 15.57858464455125","mean_motion":15.57858464,"eccentricity":0.0003147,"inclination_deg":97.119,"raan_deg":329.9156,"arg_perigee_deg":7.3552,"mean_anomaly_deg":352.775,"bstar":0.00015483,"rev_number":45512,"period_min":92.43458460935,"perigee_km":391.72498889588,"apogee_km":395.98728137513,"semimajor_km":6771.9931351355,"source":"CELESTRAK","updated_at":"2026-09-20T09:00:33.973502Z"}}}